Location: Gettysburg
(39.8310°N, 77.2310°W)
Time: 16:25:52
(UTC-04:00)

Envisat - Pass Details

Date: 01 June 2023
Orbit: 763 x 764 km, 98.2° (Epoch: 24 September)

Event Time Altitude Azimuth Distance (km) Brightness Sun altitude
Rises 04:43:12 0° 17° (NNE) 3,235 7.3 -10.2°
Reaches altitude 10° 04:45:34 10° 21° (NNE) 2,305 6.5 -9.8°
Maximum altitude 04:50:34 59° 100° (E) 883 3.6 -9.1°
Drops below altitude 10° 04:55:33 10° 180° (S) 2,291 5.1 -8.3°
Sets 04:57:52 0° 184° (S) 3,213 5.8 -8.0°
